Wind_Speed
32 32 31 31 31 29 27 26 27 26 25 25 24 24 24 23 23 22 21 20 18 18 17 16 16 15 14 14 15 15 14 14 13 14 14 14 14 13 13 13 12 11 11 9 8 8 8 8 8 8 8 8 8 8 8 8 9 10 11 10 9 9 9 9 10 10 9 10 10 10 10 10 10 11 11 10 10 9 9 8 8 8 8 7 8
33 31 30 32 30 29 27 26 27 26 25 25 24 24 23 23 22 21 21 19 18 17 17 16 15 15 14 14 14 14 13 13 13 13 13 13 13 13 12 12 11 10 10 9 9 8 8 8 8 8 8 8 8 8 8 8 9 10 11 11 10 10 9 9 10 11 11 11 11 11 11 10 10 11 11 10 10 9 8 7 7 7 7 7 7
33 31 30 31 29 28 27 26 27 26 25 24 24 24 23 23 22 21 20 19 18 17 17 16 15 15 14 14 14 13 13 12 12 12 12 13 12 12 12 11 11 10 10 9 9 8 8 8 8 7 7 7 7 7 7 8 9 10 11 11 10 10 10 9 9 11 12 12 12 11 11 10 10 11 11 10 10 9 7 7 7 7 7 8 7
32 31 31 31 29 28 27 27 27 26 25 24 24 24 24 23 22 21 19 18 18 17 17 16 15 15 14 14 14 13 12 11 11 11 11 12 12 11 11 11 10 9 9 9 9 9 8 8 7 7 7 7 7 7 8 9 9 9 10 11 11 10 10 9 9 10 11 12 11 11 10 10 10 11 11 10 9 8 7 7 7 7 8 8 8
31 31 31 30 29 28 28 27 26 25 25 25 24 24 24 23 21 20 19 18 17 17 16 16 15 15 14 14 13 12 12 11 10 10 10 11 10 10 10 9 9 9 9 9 9 9 9 8 7 7 7 7 7 7 7 8 9 9 9 11 11 10 10 9 9 9 10 11 10 10 10 10 10 10 10 10 9 9 8 8 7 7 8 8 9
29 30 30 29 29 29 28 27 26 25 25 24 23 24 24 22 21 20 19 18 17 16 16 15 15 15 14 13 12 12 11 10 9 9 9 9 9 9 9 8 8 8 8 8 9 9 10 9 8 7 7 7 7 7 7 8 9 9 9 11 11 10 9 9 10 9 10 10 10 9 10 11 10 10 10 10 10 9 9 8 8 8 8 8 10
29 30 30 29 30 30 28 27 26 24 24 24 24 24 23 22 21 19 18 18 17 16 15 15 15 14 14 13 12 11 10 10 9 8 8 8 8 8 8 8 8 8 8 8 9 9 9 8 8 7 7 7 7 7 7 8 9 9 10 11 11 10 10 9 9 9 9 9 10 10 10 11 10 10 10 9 10 10 10 9 8 8 9 9 10
29 29 30 30 30 30 29 27 26 24 23 24 24 24 22 21 20 19 18 17 16 15 15 14 14 14 13 12 12 11 10 9 8 8 8 8 8 8 8 8 8 8 8 8 8 9 9 8 8 8 7 7 7 7 8 8 9 9 10 11 11 10 10 10 9 8 9 8 10 10 9 11 11 10 10 9 10 11 10 10 9 8 9 9 10
29 29 30 29 29 29 28 27 26 23 23 24 24 23 22 20 20 19 18 17 16 15 14 13 14 13 13 12 11 10 9 9 8 7 7 7 8 8 7 8 8 8 8 8 8 9 8 8 8 8 8 7 7 7 8 9 9 10 10 11 11 10 10 10 9 8 10 10 9 10 9 10 11 10 9 9 10 10 10 9 9 9 9 8 9
27 28 29 29 29 28 28 26 25 23 23 24 23 23 21 20 19 18 17 16 15 15 14 13 13 12 12 11 11 10 9 9 8 8 8 8 7 7 7 7 7 8 8 8 9 9 8 8 8 9 8 8 8 8 9 9 10 10 9 10 10 9 9 10 9 8 11 10 10 10 9 9 10 10 9 9 10 9 9 9 9 10 10 8 9
26 26 27 28 28 28 27 25 24 23 23 24 23 22 20 19 18 17 16 16 15 14 14 13 13 12 11 11 10 9 9 9 9 9 8 8 8 7 7 7 7 8 8 9 9 9 9 8 9 9 9 9 8 8 9 9 9 9 9 10 10 8 8 10 10 9 11 10 9 9 9 10 10 10 9 10 10 10 10 10 9 10 10 10 9
24 24 26 28 28 27 26 25 24 23 23 23 23 22 20 18 17 16 15 14 14 13 13 13 11 10 10 10 10 9 9 9 8 8 8 8 8 8 8 8 8 8 9 10 10 10 10 9 10 9 9 9 9 9 9 9 9 9 9 9 9 9 8 9 9 8 9 9 8 8 9 10 11 10 9 9 10 10 11 12 11 10 10 10 10
23 23 26 27 27 26 25 24 24 23 23 23 22 21 20 18 16 15 15 14 13 13 13 12 10 9 9 9 9 9 9 9 8 8 8 7 7 7 8 8 8 9 10 10 10 10 10 10 10 10 9 9 9 9 9 9 9 8 9 9 9 9 9 9 7 5 6 7 7 8 9 9 10 10 9 9 10 10 10 12 11 10 10 10 9
23 23 27 27 27 26 25 24 23 23 23 21 21 21 20 18 16 15 14 13 12 12 12 11 10 9 9 8 9 9 9 8 8 8 8 7 7 7 8 8 9 9 9 10 9 9 10 11 10 10 10 9 9 9 9 9 9 9 9 9 9 9 9 9 8 5 6 7 7 8 9 9 9 9 9 9 9 9 10 10 10 10 10 10 10
23 24 26 26 26 25 24 24 23 22 22 20 20 21 20 17 16 15 14 13 12 11 11 10 9 9 8 8 8 9 9 8 8 8 8 8 8 7 8 9 9 9 9 10 9 9 10 10 11 10 10 9 9 9 9 9 9 9 8 9 8 9 9 10 8 4 5 8 8 8 9 10 10 9 10 9 9 9 10 10 10 9 9 10 10
22 23 25 25 26 25 24 24 23 21 21 20 20 20 19 17 16 15 14 12 11 10 10 9 8 8 8 7 7 8 8 7 7 7 7 8 8 8 8 9 9 9 9 9 9 8 9 10 10 10 10 9 9 9 9 9 9 9 9 8 8 8 10 11 9 3 3 7 9 8 8 9 9 10 10 10 9 8 9 10 10 10 9 9 9
22 21 24 26 25 25 24 24 23 21 20 19 19 20 19 17 16 15 13 12 10 9 8 7 6 7 7 6 6 7 7 7 7 6 6 7 7 7 7 8 8 8 9 9 8 8 8 9 9 9 9 8 8 8 8 9 9 9 8 8 7 8 10 11 9 5 4 7 7 8 8 9 8 9 10 10 9 8 9 9 9 10 9 9 8
22 21 23 25 24 23 24 24 23 21 19 19 18 19 20 18 16 15 13 11 10 8 7 5 5 6 6 5 5 6 6 6 6 5 5 5 6 6 6 6 7 8 8 8 8 8 8 8 9 8 8 8 8 7 7 8 9 9 8 8 8 9 10 10 6 5 6 7 6 7 8 9 8 8 9 10 9 8 8 9 9 9 9 9 7
21 21 21 23 23 22 23 24 23 21 19 18 18 20 20 18 17 15 14 11 9 8 5 4 4 5 5 4 4 5 5 5 5 3 3 4 5 4 5 5 6 7 8 8 7 7 7 8 8 9 9 9 9 8 8 8 9 9 9 8 8 9 9 8 5 4 6 6 5 6 7 7 7 7 8 9 9 9 8 8 9 9 9 8 8
20 20 20 21 21 21 23 24 23 21 19 17 18 21 21 19 17 16 14 11 9 8 5 3 4 5 5 4 4 5 5 4 3 3 2 2 3 3 3 4 5 7 7 7 7 6 6 6 7 9 9 9 9 9 9 9 9 9 9 9 9 8 7 7 5 5 6 5 5 5 6 6 7 7 7 7 8 8 8 7 8 8 8 8 8
21 21 21 20 20 20 22 23 23 22 20 18 19 21 21 19 17 16 14 12 10 8 5 3 3 5 5 4 4 4 4 3 2 3 2 2 2 2 2 3 5 6 7 6 6 5 5 6 6 7 8 8 8 9 9 10 9 9 10 10 9 7 6 6 4 4 5 5 5 5 5 5 5 6 6 7 7 7 7 7 7 8 7 7 8
23 22 21 21 21 21 21 22 23 23 21 19 20 20 21 19 16 15 13 12 10 8 5 3 4 5 5 5 6 5 5 4 2 2 2 2 2 2 2 2 3 5 6 5 5 5 5 5 5 6 7 7 7 7 7 9 10 9 9 10 9 8 6 4 2 2 4 4 5 5 5 4 4 5 5 6 7 6 6 7 7 7 7 7 7
24 22 23 22 21 21 21 22 23 23 21 20 19 18 19 18 16 15 13 12 11 8 6 4 5 6 6 7 6 4 5 4 2 1 1 2 2 2 2 1 2 5 5 4 4 4 5 4 4 6 6 7 7 7 6 6 9 9 8 10 8 7 7 7 5 3 3 4 5 5 5 4 3 4 4 5 6 6 6 6 6 7 7 7 7
25 23 23 23 22 22 22 22 23 24 22 20 19 17 18 17 15 14 13 12 11 9 7 7 7 6 7 7 5 4 4 3 2 1 1 2 2 1 2 2 2 4 4 3 4 5 4 4 4 6 6 7 6 6 7 6 7 7 7 8 6 4 6 5 4 3 3 5 5 6 5 4 4 4 4 4 5 6 6 6 6 6 7 7 7
25 23 23 23 22 22 22 22 23 24 22 20 19 17 18 17 15 14 13 12 10 9 8 9 8 8 8 6 4 4 4 2 3 3 1 1 2 1 2 3 3 3 2 2 4 4 3 3 5 5 6 6 3 3 4 4 5 5 4 5 4 4 5 5 4 3 3 5 4 4 5 3 4 4 5 5 5 5 5 5 6 6 7 7 7
23 22 23 23 23 23 22 22 23 25 23 20 19 18 19 17 15 15 13 12 11 10 10 10 9 9 8 6 5 4 5 4 3 4 2 1 2 1 2 3 4 4 1 1 4 3 1 3 6 6 5 4 1 2 2 3 3 3 3 4 4 4 4 4 5 4 3 5 4 3 4 2 3 4 4 6 6 5 5 5 6 6 7 7 6
23 22 23 23 23 23 23 22 23 25 24 21 18 18 18 17 15 15 14 12 11 11 10 9 9 10 9 7 6 5 6 5 4 4 3 3 4 1 1 2 5 5 0 2 3 2 1 4 5 4 3 1 1 2 2 3 3 3 3 3 4 4 3 4 5 5 2 4 5 3 4 3 2 4 4 5 6 6 6 6 6 6 7 7 7
23 23 23 23 24 24 24 23 24 26 25 22 19 17 18 17 15 16 14 13 12 11 10 9 9 10 10 9 8 6 6 6 5 5 4 4 4 1 1 1 4 4 2 2 2 3 2 3 1 1 2 2 2 4 3 4 4 4 2 3 4 3 4 4 4 4 2 3 4 4 5 5 3 2 3 4 5 6 7 6 6 6 7 7 8
24 23 23 23 24 25 25 24 24 26 25 23 20 17 18 17 16 16 15 14 13 11 11 11 10 10 10 11 10 7 6 6 6 5 5 5 3 2 2 2 3 2 3 2 3 1 2 2 1 1 3 3 2 4 3 4 4 2 2 2 2 2 3 3 4 4 2 4 1 3 5 6 5 2 2 3 4 5 7 7 6 6 6 7 8
24 24 23 23 25 25 25 25 25 26 25 22 20 18 18 17 16 16 15 15 14 12 12 11 10 10 10 12 11 9 7 6 6 6 5 5 4 3 3 2 2 0 1 3 2 0 3 3 2 3 3 2 3 3 3 4 5 1 1 2 1 2 2 1 3 3 2 2 2 2 5 5 5 3 3 4 4 5 6 7 6 6 6 7 8
24 24 23 23 24 25 25 25 25 26 25 22 21 19 19 18 17 17 16 15 14 13 12 11 11 10 10 12 12 12 9 6 6 7 6 5 4 4 3 1 2 0 1 3 1 0 2 2 1 1 1 2 3 3 4 4 4 2 1 1 1 2 2 1 2 3 4 1 4 1 3 3 4 3 4 6 5 5 6 7 7 6 6 6 7
24 25 24 23 24 25 25 26 25 26 25 22 21 20 19 19 18 17 16 15 15 14 12 12 11 10 11 13 12 13 11 9 10 9 6 5 5 4 4 4 3 1 1 2 1 1 1 2 2 2 2 3 3 3 4 4 2 2 1 1 1 1 1 2 3 3 2 3 8 2 2 2 3 3 4 7 7 6 6 7 7 7 7 6 6
24 25 24 23 24 25 26 26 25 26 25 23 22 21 19 19 19 17 16 16 16 14 13 12 11 11 14 14 12 13 13 12 12 10 8 6 6 6 4 3 3 2 3 3 1 1 1 2 3 3 3 3 2 3 3 2 1 1 1 1 1 1 1 2 3 3 2 3 6 1 2 1 2 3 3 5 6 7 7 7 7 7 7 6 6
24 25 25 24 24 25 25 26 25 26 26 23 22 22 20 19 19 17 17 16 16 15 14 13 12 13 13 13 12 13 14 13 12 10 9 6 7 7 4 3 3 4 3 2 1 2 2 1 2 2 2 3 2 2 3 2 1 1 1 1 1 1 1 1 2 2 3 3 2 1 2 1 2 2 2 2 4 5 6 7 7 7 7 7 7
24 25 26 25 25 25 25 26 26 26 26 25 23 23 21 20 19 17 17 17 16 15 14 13 13 13 13 13 13 13 13 13 12 11 10 8 7 6 4 5 5 4 3 1 2 1 2 1 2 2 3 2 2 2 3 2 1 1 2 2 2 1 1 2 1 3 3 3 1 1 3 3 3 3 2 2 2 4 4 4 4 5 5 5 6
25 25 26 26 25 26 26 25 26 27 27 27 24 23 23 21 19 18 17 18 17 15 14 13 13 13 12 13 14 14 13 13 12 11 11 9 7 6 6 8 7 4 3 3 2 1 2 1 2 3 2 1 2 2 2 2 2 2 1 2 3 2 3 3 3 3 4 4 2 2 4 4 4 4 4 3 1 2 2 3 3 3 3 3 4
26 26 27 27 26 26 26 25 26 27 26 27 25 23 24 23 21 19 18 19 18 15 14 14 13 13 13 12 13 14 14 14 13 12 12 10 7 7 6 7 6 4 5 4 2 2 2 2 2 2 1 1 2 1 1 2 2 1 2 3 2 3 2 2 3 2 1 3 3 4 4 4 5 5 4 3 2 1 2 1 2 2 3 3 4
27 27 27 28 28 26 26 25 25 26 23 23 24 23 24 23 23 21 19 19 18 15 14 14 14 13 13 13 14 14 14 14 13 12 12 10 8 7 6 7 5 4 6 4 2 2 1 1 2 2 2 1 1 1 2 2 2 1 2 2 2 3 2 1 4 2 1 3 3 4 5 4 4 4 4 4 2 1 1 1 1 1 3 3 4
28 28 28 29 28 26 26 25 25 26 24 21 20 21 21 22 22 22 20 20 19 17 15 14 14 14 13 15 15 14 14 14 14 13 12 11 8 7 8 8 6 5 6 4 2 2 2 2 1 0 1 1 2 2 2 2 3 2 2 3 3 4 4 3 5 3 2 4 3 4 4 4 4 3 4 3 2 2 2 0 0 1 1 2 4
28 29 29 29 29 28 27 26 25 26 26 23 21 21 21 20 21 22 21 20 20 18 17 15 15 15 14 16 17 14 14 15 14 14 12 11 10 8 9 8 7 7 6 4 3 1 3 3 1 0 1 2 2 3 2 2 3 3 4 4 4 5 4 4 5 4 3 3 3 3 4 5 4 4 4 3 1 2 3 2 2 2 1 2 2
29 30 31 31 31 29 28 28 27 27 27 26 24 24 23 21 21 22 20 19 19 19 19 18 16 15 15 16 17 15 16 16 15 14 13 12 11 10 10 9 8 8 6 4 4 3 4 3 1 0 1 2 2 2 3 5 5 5 6 5 4 5 4 5 5 4 4 4 3 3 4 4 5 5 4 3 1 2 4 4 4 4 3 2 2
31 31 33 33 32 31 29 29 28 28 29 27 25 25 24 23 23 22 19 18 19 19 20 19 17 16 17 18 18 16 17 16 15 15 14 13 12 12 11 10 8 8 7 5 5 5 5 3 2 0 1 2 2 2 3 6 5 6 8 6 5 5 5 4 4 4 5 5 3 3 4 4 6 6 5 4 5 5 5 5 4 4 4 3 3
33 32 33 32 32 32 31 30 29 29 30 29 27 26 25 23 22 21 19 18 18 19 18 18 18 17 17 19 19 18 17 17 15 15 14 14 13 13 12 10 8 8 8 7 5 5 5 3 3 2 2 2 2 3 5 6 4 5 8 7 6 6 5 4 4 5 5 5 4 4 4 4 5 6 6 6 6 6 5 4 5 4 4 3 2
34 33 33 33 33 33 32 31 30 30 30 30 29 27 25 24 21 20 19 18 16 17 18 17 18 17 17 19 19 18 18 17 16 15 14 14 14 13 11 10 9 9 10 9 6 5 5 4 4 4 4 4 3 3 5 7 6 7 6 5 6 7 6 6 6 6 5 5 4 5 5 4 6 6 6 7 5 5 4 4 5 5 4 4 4
34 35 36 36 35 35 34 32 31 31 30 29 30 28 26 25 23 21 20 19 16 17 18 18 18 19 19 20 18 18 19 19 17 16 15 14 14 13 12 12 11 10 10 9 6 5 6 6 5 5 5 5 5 4 5 6 6 8 5 4 6 6 7 10 9 6 5 5 5 5 6 4 6 5 5 6 5 5 4 3 4 4 5 6 5
35 36 36 36 36 36 36 34 32 31 30 29 30 29 28 27 26 24 23 22 20 19 20 20 19 20 20 19 19 18 19 19 19 17 15 15 14 13 13 13 11 10 10 9 7 7 8 7 6 5 5 6 7 5 5 5 6 8 7 7 6 2 5 11 9 6 5 5 5 6 6 4 4 4 4 5 4 4 3 3 4 4 6 6 6
35 35 35 35 36 36 37 37 34 32 32 31 30 29 29 27 27 27 27 26 24 22 22 21 19 19 19 18 18 19 19 19 19 19 17 15 14 13 13 13 12 12 10 9 9 8 7 7 6 7 7 7 7 6 6 5 6 8 7 7 5 1 4 8 6 8 7 5 5 6 6 5 4 4 4 4 4 5 5 4 4 3 4 6 6
34 34 35 35 36 36 37 38 37 36 35 34 30 28 30 29 28 29 29 28 25 22 23 22 19 18 17 18 18 19 20 20 20 20 18 16 15 14 14 13 13 12 11 10 9 8 8 8 8 8 7 7 7 7 8 7 5 7 8 7 6 4 5 6 5 7 8 7 8 8 7 7 6 5 5 4 5 6 4 3 4 3 2 4 6
33 34 35 36 37 38 38 38 39 40 39 37 33 31 32 32 29 30 31 29 25 21 21 22 21 19 18 18 19 19 20 19 20 21 19 17 16 15 15 14 13 13 12 10 9 9 10 10 9 8 8 8 8 8 10 9 6 6 9 9 7 6 7 7 5 6 7 7 8 9 8 8 7 7 6 5 5 5 3 3 4 3 2 2 4
33 34 34 34 36 38 38 39 39 41 41 41 39 36 35 33 29 30 33 31 28 23 20 20 22 22 21 21 21 21 21 19 19 21 20 18 17 17 16 15 14 14 12 11 10 10 10 10 9 8 9 9 9 8 10 12 10 7 8 10 10 8 8 8 7 7 6 5 7 10 11 10 9 8 7 6 6 4 4 5 3 3 4 3 3
33 33 33 33 35 37 38 39 39 40 41 42 42 40 39 37 32 32 34 33 31 28 24 22 22 25 25 25 24 23 23 21 20 21 21 20 18 18 17 16 15 14 14 12 12 12 10 9 9 9 9 10 9 8 10 12 13 10 8 9 11 9 8 8 8 8 7 6 7 8 9 10 10 10 9 7 7 7 7 6 5 5 6 5 5
Wind_Direction
144 145 144 144 142 141 140 136 133 132 132 133 133 131 130 130 131 131 130 130 128 124 118 114 110 106 102 99 97 93 91 90 90 89 88 88 89 89 88 89 89 91 92 93 93 94 94 92 89 85 83 82 81 80 77 76 74 72 69 67 66 71 79 84 84 84 91 95 99 102 102 102 103 100 95 93 91 91 91 90 90 91 92 96 101
144 146 144 145 144 142 139 135 134 133 134 134 133 131 131 132 133 133 133 130 126 122 116 112 107 105 102 99 95 93 93 91 90 88 88 88 89 88 87 87 87 89 89 89 89 90 91 89 88 85 84 82 81 81 78 74 73 73 71 70 67 71 79 84 85 86 93 97 99 101 102 103 100 94 91 92 93 92 90 92 95 96 95 96 101
145 147 147 146 143 142 138 137 136 134 136 134 133 132 133 134 134 133 131 128 124 120 113 108 105 104 101 98 96 96 95 92 90 88 88 89 89 89 87 85 84 84 84 85 85 86 88 89 89 87 85 84 84 81 77 74 72 73 72 70 69 71 78 86 88 88 94 99 102 103 103 99 94 93 94 95 93 90 87 95 102 105 106 108 106
146 147 146 144 142 142 141 141 137 136 137 134 134 134 135 135 133 131 127 126 123 118 112 107 104 102 100 98 97 97 95 92 89 87 88 88 88 88 86 83 82 81 82 82 81 84 85 87 87 87 88 87 87 82 76 74 72 74 75 71 71 72 78 88 91 91 93 100 104 104 102 96 95 96 96 94 90 89 88 92 102 108 111 112 105
145 145 144 143 142 143 143 141 136 138 138 135 136 136 136 134 131 127 125 124 122 117 112 107 104 101 99 98 97 97 96 95 90 88 88 89 89 88 86 83 82 81 81 79 76 76 76 77 80 84 88 87 84 83 78 75 74 74 79 75 72 74 82 91 96 95 92 95 98 99 100 98 99 98 96 94 91 90 90 90 98 106 109 111 108
145 145 145 146 145 144 144 139 137 141 140 137 138 138 137 133 130 126 125 123 120 117 113 109 104 100 99 97 98 98 98 97 93 91 91 93 93 90 88 84 82 80 80 77 73 68 69 71 78 84 84 85 82 82 81 78 77 76 80 78 74 78 87 93 98 96 91 95 98 98 101 102 100 98 98 100 102 97 93 93 97 106 111 112 109
147 147 147 148 147 145 143 140 140 143 141 139 139 139 137 134 131 127 125 122 120 117 114 111 105 101 98 97 98 99 98 97 95 95 95 96 95 92 89 85 82 80 79 76 73 69 69 70 73 79 79 81 82 84 83 78 77 79 81 80 76 80 90 95 101 99 91 99 107 106 106 105 104 101 101 103 104 100 95 95 100 110 115 116 114
150 149 149 148 148 145 143 142 143 146 142 141 142 140 138 135 131 127 125 122 120 117 115 113 108 102 99 100 101 100 98 96 96 97 97 94 90 89 87 84 81 78 78 74 73 73 70 70 70 73 76 77 80 85 85 79 77 79 82 82 79 83 93 97 100 101 94 99 107 109 110 105 104 101 98 100 98 101 102 98 100 108 113 117 118
152 152 151 148 147 146 144 145 144 147 145 144 144 140 139 135 131 129 126 123 121 119 118 115 111 106 104 104 102 101 99 99 99 98 98 93 88 87 86 82 81 78 75 74 73 73 71 70 69 71 75 78 79 82 84 80 75 75 81 84 83 84 92 94 93 92 89 97 106 110 113 104 103 101 96 97 96 102 109 106 105 103 105 112 118
148 152 152 148 148 147 147 147 146 148 147 147 145 141 140 135 133 132 129 125 123 122 120 117 114 111 108 104 101 100 101 103 100 96 94 92 91 88 86 82 79 77 76 77 76 75 74 71 71 72 72 74 78 81 81 78 75 75 83 89 89 85 87 92 93 86 84 95 108 114 117 109 107 107 103 101 99 101 108 112 109 102 101 106 115
144 148 148 149 150 149 148 148 149 151 150 150 146 142 141 137 136 134 131 127 125 123 118 114 114 115 112 106 102 101 101 100 96 93 91 89 89 85 83 80 78 79 80 81 81 82 81 77 73 71 71 72 75 79 81 80 80 80 85 92 94 88 80 85 83 73 78 92 106 116 123 123 120 116 112 109 106 105 106 107 106 105 103 103 110
144 144 145 151 152 150 148 149 151 153 154 152 147 145 143 140 138 135 132 129 125 121 114 111 114 119 118 111 107 105 100 96 95 94 93 92 88 86 83 79 80 81 84 84 84 86 84 80 76 74 73 73 73 75 79 82 83 84 87 92 97 90 79 79 74 66 80 94 100 110 120 125 124 118 115 112 109 106 102 100 102 109 111 108 110
145 145 149 154 154 153 150 151 153 153 156 154 150 148 147 144 141 137 133 129 123 118 115 113 117 123 122 117 113 107 100 95 96 97 98 97 91 87 83 81 85 88 89 88 86 87 86 82 79 80 78 76 76 75 76 80 81 85 89 93 100 97 93 92 87 85 93 96 100 112 119 121 121 118 116 113 110 106 100 98 99 104 107 109 112
148 149 152 156 158 157 152 151 153 154 157 156 154 153 152 149 143 139 135 131 124 120 119 120 125 126 126 122 115 105 98 96 97 98 96 95 93 91 89 89 93 96 94 92 90 88 87 84 81 81 81 80 78 78 78 78 82 86 91 97 103 105 106 103 93 93 101 99 102 116 124 122 121 118 117 116 111 108 103 100 100 100 101 104 110
149 153 154 157 161 160 156 155 155 155 158 158 158 158 156 152 147 143 139 134 128 125 124 127 131 126 126 124 118 105 97 97 95 96 94 90 91 92 96 97 100 103 101 97 93 89 88 86 84 82 81 80 79 80 79 78 80 83 88 94 102 108 109 102 91 74 92 100 98 109 123 122 124 124 123 123 118 113 109 105 102 101 103 104 105
147 155 158 160 162 161 160 161 160 158 160 161 162 163 160 155 150 147 143 138 133 131 127 129 135 128 125 126 124 111 101 96 92 95 93 90 88 90 96 100 105 107 107 105 100 95 90 86 84 82 82 81 81 80 77 75 74 77 83 89 98 107 109 105 102 103 92 101 105 112 118 119 123 125 127 128 124 118 113 110 104 100 102 105 104
147 157 162 163 163 162 164 166 167 164 164 165 165 166 164 160 156 153 149 143 140 136 128 130 140 134 129 132 130 117 106 92 89 95 96 94 90 90 92 100 109 112 114 112 106 97 89 86 81 77 77 77 77 79 78 74 74 78 79 83 92 99 105 107 113 146 131 105 107 111 110 112 116 120 125 126 124 117 115 117 109 101 99 101 106
147 154 158 163 163 162 165 168 169 168 168 167 168 169 168 166 163 160 158 152 149 145 134 133 148 148 141 142 135 117 105 90 85 95 101 100 93 91 93 102 112 119 125 120 109 98 87 81 76 72 69 68 69 71 74 73 76 79 76 82 88 89 98 103 115 151 128 107 107 109 108 113 120 123 126 125 123 117 116 121 114 105 99 97 101
150 152 154 159 160 160 166 170 169 168 169 169 170 172 173 171 169 168 166 163 160 157 148 141 161 166 156 157 143 115 103 89 78 91 106 104 98 95 99 109 117 128 137 128 114 100 87 79 75 71 64 61 64 66 69 71 74 72 73 81 88 91 99 104 115 129 109 102 106 109 114 121 129 131 129 127 123 117 116 120 117 109 100 97 99
155 155 154 157 159 161 168 171 168 168 168 172 175 175 176 176 175 175 174 174 172 170 164 151 170 178 173 173 149 117 103 89 78 98 116 112 102 98 106 117 127 140 146 137 120 101 90 84 75 66 61 61 65 67 64 63 65 66 68 76 87 91 94 98 96 93 93 103 110 115 124 129 135 134 129 127 121 119 121 121 120 115 105 99 99
159 160 157 158 158 164 172 171 169 169 168 175 180 178 179 180 180 182 182 184 185 183 176 160 174 180 181 175 155 139 126 117 111 118 129 126 107 96 100 119 138 146 148 141 121 101 84 80 74 65 64 64 66 70 68 65 62 62 65 72 83 77 77 100 104 84 87 100 114 121 125 130 141 139 130 128 124 122 126 125 124 120 110 102 96
161 163 162 162 161 166 170 169 171 170 169 178 180 180 182 182 184 188 189 193 194 192 188 181 184 180 182 177 164 158 148 149 164 148 128 119 108 79 65 105 151 148 144 134 116 98 77 74 73 67 67 63 65 70 68 70 68 63 62 68 73 64 57 74 93 105 105 100 112 120 118 123 139 144 140 136 133 130 131 133 131 127 118 109 100
162 165 166 166 165 168 168 169 174 170 170 177 179 182 185 183 187 192 195 200 200 201 201 198 197 187 188 182 168 168 165 171 190 153 103 123 106 70 60 64 142 143 137 122 101 90 85 86 67 59 62 63 59 58 59 62 69 65 56 66 70 60 46 36 39 67 105 107 111 113 113 121 134 150 152 147 147 145 143 141 139 137 131 122 113
165 166 167 169 170 171 169 171 175 172 172 176 177 182 186 185 189 193 198 204 205 206 206 206 201 191 199 187 170 193 193 196 210 172 129 135 110 72 65 69 113 137 130 121 101 86 89 86 52 41 47 59 47 41 52 36 47 56 46 62 72 71 64 54 43 30 80 109 108 106 110 127 141 156 161 166 168 161 152 144 145 148 145 138 132
168 166 167 171 173 173 171 173 177 175 175 176 176 183 186 184 187 193 196 201 204 205 207 211 203 196 205 187 172 198 193 210 210 181 166 141 151 142 105 99 116 124 115 137 112 93 104 79 40 37 42 54 49 28 54 28 39 60 51 65 65 71 79 77 71 25 59 107 107 111 118 132 145 159 166 171 177 175 161 151 156 155 151 150 144
171 170 171 173 174 175 174 175 179 178 178 177 175 184 187 182 186 192 192 195 200 200 204 209 205 201 201 183 187 197 184 202 203 187 175 192 229 196 124 135 126 117 153 221 121 103 152 85 49 53 48 39 47 16 62 84 87 79 64 79 68 67 74 68 80 68 62 99 101 110 116 123 153 160 174 173 174 179 175 167 166 161 156 153 153
174 175 175 176 176 177 177 177 181 181 182 180 178 187 188 181 187 192 190 192 197 199 203 207 207 205 199 181 189 199 189 196 198 195 174 205 250 248 144 153 119 111 203 278 112 96 39 80 62 70 79 50 310 330 42 82 91 87 62 75 80 69 70 63 78 87 61 78 86 81 92 88 141 166 182 180 172 176 182 179 176 172 162 155 163
176 177 177 178 178 178 179 179 184 186 185 183 182 187 187 184 188 193 191 192 196 197 200 203 208 210 204 186 183 197 197 192 197 199 184 211 238 201 195 132 113 121 176 261 51 53 16 58 79 123 97 93 321 333 40 69 65 87 73 63 82 65 69 67 68 99 72 39 77 79 73 73 88 163 193 187 173 176 181 182 182 178 165 160 169
178 179 178 180 181 181 180 181 187 189 188 187 185 185 188 186 189 193 191 195 196 194 199 201 205 208 207 198 187 189 199 195 194 193 200 218 214 207 233 134 129 163 167 150 77 52 320 5 58 358 31 60 17 348 29 76 65 83 89 58 72 64 68 67 62 103 86 352 24 93 67 69 82 117 183 185 171 175 181 180 183 183 173 167 168
181 179 179 181 182 183 182 183 189 191 190 189 187 187 189 187 191 194 192 199 196 191 200 199 202 204 208 211 196 186 193 196 200 193 200 215 201 216 244 102 105 280 50 56 65 55 316 343 46 35 359 34 46 344 349 70 83 86 96 77 48 60 59 81 74 87 118 337 305 109 81 73 81 105 158 168 166 170 181 183 183 182 181 178 170
184 181 180 182 182 184 184 185 189 192 191 190 188 189 191 189 194 197 194 198 195 193 198 198 203 200 208 219 206 198 190 182 204 196 195 210 202 218 234 121 96 166 1 12 11 290 337 329 10 61 304 29 36 341 344 31 69 62 108 109 70 68 41 10 76 73 121 149 312 17 94 74 74 93 146 159 165 168 180 184 182 180 183 185 179
185 184 182 182 182 184 186 186 189 194 192 189 191 192 192 192 195 198 195 197 197 197 198 199 202 196 212 221 211 210 200 192 206 199 193 200 203 227 219 183 159 143 252 249 218 216 283 321 341 359 1 34 26 345 356 6 26 60 117 125 81 98 63 20 53 76 140 296 313 308 112 77 81 86 135 157 163 167 182 188 182 180 182 186 186
187 186 185 183 183 184 185 187 190 195 191 187 192 193 193 194 196 197 198 200 199 199 201 202 201 201 217 220 209 213 209 208 213 203 198 194 205 229 230 200 172 167 230 250 268 334 323 355 6 20 20 12 13 349 356 6 9 76 97 126 105 148 134 69 52 74 120 350 336 306 126 73 94 80 115 155 166 170 182 190 184 179 180 183 188
186 187 187 185 185 185 186 188 190 195 192 187 193 194 193 195 196 197 200 202 199 200 202 203 203 205 218 219 211 215 212 214 217 209 204 199 210 221 233 250 214 210 235 269 311 333 333 1 357 36 46 8 13 353 343 5 18 92 105 117 123 188 182 114 44 70 117 85 26 141 131 95 120 83 65 138 173 181 184 188 187 183 182 183 188
185 186 187 187 186 186 187 188 190 196 193 190 194 194 194 196 195 196 201 203 200 201 203 205 207 206 215 219 214 217 215 214 216 212 206 203 215 218 223 237 235 243 264 258 217 246 315 344 354 12 43 21 1 353 349 359 20 101 124 105 114 145 98 84 99 107 113 129 149 125 99 99 130 120 93 95 166 189 190 192 192 191 189 188 195
185 185 187 187 188 188 189 189 191 195 194 193 194 194 195 197 196 196 202 205 201 201 202 203 210 207 209 218 218 217 216 216 215 214 210 204 215 222 221 235 237 241 263 275 255 240 288 305 7 13 19 15 3 3 1 1 31 76 117 120 120 116 114 99 104 112 100 112 125 85 75 84 107 108 105 94 108 176 178 188 186 197 203 194 201
186 185 186 187 188 190 190 190 192 193 193 194 194 196 197 197 197 197 202 205 202 202 203 201 207 209 205 214 221 217 213 217 217 214 213 205 212 227 231 245 242 217 236 251 266 290 322 334 343 6 5 19 21 11 24 28 38 70 91 122 117 94 135 126 116 154 98 102 114 92 84 77 79 84 89 75 62 136 151 179 175 197 211 202 206
187 186 186 188 187 189 190 190 193 193 191 192 195 199 200 200 199 200 203 205 202 202 206 203 204 209 204 209 221 218 213 218 219 216 215 209 211 220 225 246 253 245 251 241 196 232 308 299 300 352 22 49 82 40 44 52 51 74 95 129 148 104 103 122 127 153 38 103 114 86 87 75 67 81 89 69 36 70 117 191 169 198 210 209 214
187 186 186 188 187 189 191 189 191 192 191 190 192 196 199 200 200 203 205 206 203 200 205 206 205 207 204 210 218 217 215 217 219 218 215 213 214 217 224 237 250 260 272 273 225 217 260 262 246 4 3 55 112 79 58 59 65 98 108 114 148 123 105 127 143 148 114 113 109 87 95 86 51 44 78 80 19 33 57 199 204 211 204 207 217
186 186 186 188 188 189 190 189 189 190 191 189 190 193 195 198 200 202 205 207 207 201 202 206 207 207 205 214 219 214 216 218 217 219 215 214 214 218 232 240 243 250 263 265 237 207 272 281 260 224 7 49 82 82 75 82 92 117 114 110 130 124 116 139 155 160 151 135 124 110 105 101 80 51 64 84 63 44 51 76 111 120 143 198 217
186 186 186 188 188 189 190 189 188 189 190 189 190 192 194 197 199 201 201 205 208 204 203 203 205 208 205 214 219 214 217 219 217 219 217 216 216 214 228 238 238 248 257 247 227 217 240 247 223 352 43 80 94 93 86 91 100 112 122 130 126 125 137 152 158 163 153 146 141 120 109 114 105 90 84 78 76 69 56 62 84 90 94 120 140
185 186 187 189 189 190 192 191 189 189 191 191 190 191 194 198 199 199 199 203 206 207 207 204 204 207 208 214 219 216 218 221 220 220 218 218 220 218 224 234 237 246 254 238 222 229 234 214 192 117 101 151 135 147 131 107 106 115 126 134 121 125 142 151 161 169 155 141 132 126 117 104 94 94 96 74 65 74 66 58 68 69 72 90 104
185 187 188 189 190 190 192 193 191 190 192 193 193 192 194 196 198 198 197 202 206 207 208 207 207 206 210 219 221 218 220 222 220 220 220 219 221 223 228 236 237 240 250 247 231 234 235 203 187 179 175 174 150 158 146 129 129 141 144 147 141 138 143 156 173 170 158 138 128 136 122 96 97 99 97 93 86 92 97 89 84 72 65 71 76
184 187 188 188 190 192 192 194 194 193 193 196 198 196 194 193 196 198 198 200 206 209 208 208 211 207 210 223 225 220 223 224 221 220 220 221 224 224 227 235 237 234 243 250 240 238 243 211 188 187 181 171 156 148 146 139 137 151 163 171 159 151 150 159 165 167 153 138 143 147 137 120 117 113 109 115 108 96 100 100 98 89 81 80 76
185 187 189 190 193 195 194 194 195 196 195 198 201 198 196 195 196 198 199 199 203 209 209 207 210 207 208 221 225 220 223 226 223 221 220 223 227 226 225 232 240 238 237 241 228 224 233 210 189 193 191 174 166 168 169 159 160 167 172 185 175 165 167 164 159 165 153 148 166 152 143 137 120 123 128 123 112 104 104 98 102 102 91 87 94
187 189 191 193 197 199 199 197 198 199 197 199 203 201 201 203 202 201 202 203 201 205 209 205 207 212 209 216 225 223 224 226 226 224 221 225 230 229 230 233 240 247 244 236 216 211 220 209 191 196 203 186 171 174 176 173 188 183 166 174 178 122 157 168 155 151 155 161 173 154 146 156 140 139 147 137 125 126 122 83 78 90 102 109 117
189 189 191 194 198 202 204 204 203 202 200 201 204 204 206 208 209 210 211 210 206 205 212 209 206 215 213 210 221 227 227 225 225 226 221 223 229 229 233 234 237 247 251 239 220 211 218 212 194 197 212 203 184 182 182 186 194 181 169 179 184 87 147 171 152 145 162 172 178 176 166 172 177 161 159 171 159 148 140 106 97 99 108 122 126
189 188 190 192 198 205 209 211 209 209 208 207 206 206 208 210 211 215 216 216 213 209 217 218 208 211 214 209 214 225 230 226 222 226 223 220 226 229 232 235 235 242 248 242 224 211 218 216 201 202 215 219 209 188 178 193 199 179 182 187 189 187 162 172 171 156 168 175 184 201 187 174 191 188 173 169 169 180 191 135 129 133 111 124 127
189 190 191 193 200 207 212 215 215 215 216 213 211 209 210 212 212 216 219 219 215 211 217 222 217 211 211 212 209 216 231 231 222 226 228 222 224 228 230 234 235 239 243 241 226 214 218 215 207 210 217 225 225 195 178 190 194 187 194 184 180 192 172 179 193 174 183 186 182 194 185 177 192 195 192 181 180 213 233 189 160 150 154 148 136
190 191 190 191 198 206 211 215 216 217 218 218 217 216 214 212 212 218 222 222 218 213 211 217 222 218 214 215 212 212 225 232 225 225 229 227 226 227 228 231 233 236 238 234 225 222 220 213 209 214 215 222 228 207 191 187 176 193 217 189 175 186 185 189 194 187 199 203 186 184 181 190 197 193 200 204 204 213 198 194 193 174 180 175 166
189 190 189 188 195 207 213 215 217 218 218 220 221 221 221 218 218 221 224 225 223 219 213 211 219 224 222 222 222 220 223 229 228 225 227 229 227 228 228 228 230 234 234 229 224 222 218 211 212 216 216 221 226 213 205 193 173 180 213 197 181 182 186 189 192 194 198 200 208 201 185 190 195 189 195 209 213 209 204 208 201 198 218 209 190
Height
1531 1533 1535 1535 1537 1538 1540 1542 1544 1545 1547 1548 1549 1550 1551 1552 1553 1554 1555 1556 1557 1558 1558 1558 1558 1559 1559 1560 1561 1561 1562 1562 1562 1562 1562 1563 1563 1563 1563 1564 1564 1564 1565 1565 1566 1566 1566 1566 1567 1567 1567 1567 1567 1568 1567 1567 1567 1566 1566 1566 1566 1566 1566 1566 1566 1565 1566 1566 1567 1567 1568 1568 1569 1569 1569 1570 1570 1571 1571 1571 1571 1572 1572 1573 1573
1531 1534 1536 1537 1538 1539 1541 1543 1545 1546 1548 1549 1550 1551 1552 1554 1554 1556 1556 1557 1558 1559 1559 1559 1560 1560 1561 1562 1562 1563 1563 1563 1563 1563 1564 1564 1564 1564 1565 1565 1565 1565 1566 1566 1566 1567 1567 1567 1567 1567 1568 1568 1568 1568 1568 1568 1567 1567 1567 1567 1567 1566 1566 1566 1566 1567 1567 1567 1568 1568 1569 1569 1570 1570 1570 1571 1571 1572 1572 1572 1572 1573 1573 1574 1574
1532 1535 1537 1538 1540 1541 1543 1544 1546 1547 1549 1550 1552 1553 1554 1555 1556 1557 1558 1559 1559 1560 1560 1560 1561 1562 1562 1563 1563 1564 1564 1564 1564 1565 1565 1565 1565 1566 1566 1566 1566 1567 1567 1567 1567 1567 1568 1568 1568 1568 1568 1568 1568 1568 1568 1568 1568 1568 1568 1568 1567 1567 1567 1567 1567 1568 1568 1568 1569 1569 1570 1570 1570 1571 1571 1572 1572 1573 1573 1573 1574 1574 1575 1575 1575
1533 1536 1538 1539 1541 1542 1544 1545 1547 1548 1550 1551 1553 1554 1555 1557 1557 1558 1559 1560 1560 1561 1561 1562 1563 1563 1564 1564 1565 1565 1565 1566 1566 1566 1566 1566 1567 1567 1567 1567 1567 1568 1568 1568 1568 1568 1568 1569 1569 1568 1569 1569 1568 1569 1569 1569 1569 1569 1569 1569 1568 1568 1568 1568 1568 1569 1569 1569 1570 1570 1570 1571 1571 1572 1572 1573 1573 1574 1574 1574 1575 1575 1575 1576 1576
1535 1536 1538 1540 1542 1544 1545 1546 1547 1550 1551 1553 1554 1555 1557 1558 1558 1559 1560 1561 1561 1562 1563 1563 1564 1564 1565 1566 1566 1566 1567 1567 1567 1567 1567 1567 1568 1568 1568 1568 1568 1569 1569 1569 1569 1569 1569 1569 1569 1569 1569 1569 1569 1570 1570 1570 1570 1570 1570 1570 1569 1569 1569 1569 1569 1570 1570 1571 1571 1571 1571 1572 1572 1573 1573 1574 1574 1575 1575 1576 1576 1576 1576 1576 1577
1536 1537 1539 1541 1543 1545 1547 1548 1549 1552 1553 1554 1555 1556 1558 1559 1560 1560 1561 1562 1563 1563 1564 1564 1565 1566 1566 1567 1567 1567 1568 1568 1568 1568 1568 1568 1569 1569 1569 1570 1570 1570 1570 1570 1570 1570 1570 1570 1570 1570 1570 1570 1570 1571 1571 1571 1571 1571 1571 1570 1570 1569 1569 1570 1571 1571 1572 1572 1572 1573 1573 1573 1573 1574 1574 1575 1575 1576 1577 1577 1577 1577 1577 1577 1578
1536 1538 1540 1542 1544 1546 1547 1549 1551 1553 1554 1555 1556 1558 1559 1560 1561 1562 1562 1563 1564 1564 1565 1566 1566 1567 1568 1568 1568 1569 1569 1569 1569 1569 1569 1569 1570 1570 1570 1571 1571 1571 1571 1571 1571 1571 1571 1571 1570 1570 1570 1571 1571 1572 1572 1572 1572 1572 1572 1571 1571 1570 1570 1571 1572 1572 1572 1573 1573 1574 1574 1574 1575 1575 1576 1576 1576 1577 1578 1578 1578 1578 1578 1578 1579
1537 1539 1540 1543 1545 1546 1548 1550 1552 1554 1555 1556 1557 1559 1560 1561 1562 1563 1564 1564 1565 1566 1566 1567 1568 1568 1569 1569 1570 1570 1570 1570 1570 1570 1570 1571 1571 1571 1571 1571 1572 1572 1572 1572 1572 1571 1571 1571 1571 1571 1571 1572 1572 1572 1572 1573 1573 1573 1573 1572 1571 1571 1571 1572 1572 1572 1573 1574 1574 1574 1574 1575 1576 1577 1577 1577 1578 1579 1579 1579 1579 1580 1579 1579 1580
1538 1539 1541 1543 1544 1547 1549 1551 1553 1555 1556 1557 1558 1559 1561 1562 1563 1564 1565 1566 1566 1567 1568 1568 1569 1570 1570 1571 1571 1571 1571 1571 1571 1571 1572 1572 1572 1572 1572 1572 1573 1573 1573 1573 1572 1572 1572 1571 1571 1572 1572 1572 1573 1573 1573 1573 1574 1574 1574 1573 1572 1571 1572 1573 1573 1573 1574 1575 1575 1575 1575 1575 1576 1577 1578 1578 1579 1580 1580 1580 1580 1580 1580 1580 1580
1538 1540 1542 1543 1545 1548 1550 1552 1554 1556 1557 1558 1559 1560 1562 1563 1564 1565 1566 1567 1568 1568 1569 1569 1570 1571 1571 1572 1572 1572 1572 1573 1573 1573 1573 1573 1573 1573 1574 1574 1574 1574 1574 1574 1573 1573 1573 1572 1573 1573 1573 1573 1573 1574 1574 1574 1574 1575 1575 1574 1574 1572 1572 1575 1575 1574 1575 1576 1576 1576 1576 1577 1577 1578 1579 1580 1580 1581 1580 1581 1581 1581 1581 1581 1581
1539 1541 1543 1545 1547 1549 1551 1554 1555 1557 1557 1559 1560 1561 1563 1564 1565 1566 1567 1568 1569 1569 1570 1570 1571 1572 1572 1573 1573 1573 1573 1573 1574 1574 1574 1574 1574 1575 1575 1575 1575 1575 1575 1575 1575 1575 1574 1574 1574 1574 1574 1574 1574 1574 1574 1575 1575 1575 1576 1575 1575 1574 1573 1575 1576 1575 1576 1576 1577 1577 1578 1579 1579 1580 1581 1581 1581 1582 1582 1582 1582 1581 1581 1582 1582
1540 1542 1544 1546 1549 1550 1552 1555 1556 1557 1558 1559 1561 1562 1563 1565 1566 1567 1568 1569 1570 1570 1571 1572 1572 1573 1573 1574 1574 1574 1574 1574 1574 1575 1575 1575 1575 1575 1575 1576 1576 1576 1576 1576 1576 1575 1575 1575 1575 1575 1575 1575 1575 1575 1575 1576 1576 1576 1576 1576 1576 1575 1574 1575 1576 1576 1576 1577 1578 1578 1579 1580 1580 1581 1582 1582 1582 1582 1583 1582 1582 1582 1582 1582 1583
1541 1542 1544 1546 1549 1551 1553 1555 1556 1558 1559 1560 1561 1563 1564 1566 1567 1568 1569 1570 1570 1571 1572 1573 1573 1574 1574 1575 1575 1575 1575 1575 1575 1576 1576 1576 1576 1576 1576 1577 1577 1577 1576 1576 1576 1576 1576 1576 1576 1576 1576 1576 1576 1576 1576 1576 1577 1577 1577 1577 1577 1577 1576 1576 1577 1577 1578 1578 1579 1579 1579 1580 1581 1582 1582 1583 1583 1583 1583 1583 1583 1583 1583 1583 1583
1541 1542 1545 1547 1549 1552 1553 1555 1557 1558 1559 1561 1562 1564 1565 1567 1568 1569 1570 1570 1571 1572 1573 1574 1574 1575 1575 1575 1576 1576 1576 1576 1576 1576 1577 1577 1577 1577 1577 1577 1577 1577 1577 1577 1577 1577 1577 1577 1577 1577 1577 1577 1577 1577 1577 1577 1577 1578 1578 1578 1578 1578 1578 1577 1579 1579 1579 1580 1580 1580 1580 1580 1581 1582 1583 1583 1584 1584 1584 1584 1584 1584 1584 1584 1584
1542 1543 1545 1547 1549 1552 1553 1555 1557 1559 1560 1562 1563 1564 1566 1567 1569 1570 1571 1571 1572 1573 1574 1574 1575 1575 1576 1576 1576 1576 1577 1577 1577 1577 1578 1578 1578 1578 1578 1578 1578 1578 1578 1578 1578 1578 1578 1578 1578 1577 1578 1577 1578 1578 1578 1578 1578 1578 1578 1579 1579 1579 1579 1579 1580 1580 1579 1580 1580 1581 1580 1581 1582 1583 1583 1583 1584 1584 1584 1585 1585 1585 1585 1584 1584
1543 1544 1545 1548 1549 1552 1554 1556 1558 1559 1561 1562 1564 1565 1567 1568 1569 1571 1571 1572 1573 1574 1574 1575 1575 1576 1576 1577 1577 1577 1577 1578 1578 1578 1578 1578 1578 1578 1578 1579 1578 1579 1578 1579 1579 1579 1579 1578 1578 1578 1578 1578 1578 1578 1579 1579 1579 1579 1579 1579 1579 1579 1580 1581 1582 1580 1579 1580 1580 1581 1581 1582 1582 1583 1584 1584 1585 1585 1585 1585 1585 1585 1585 1585 1585
1544 1545 1545 1548 1550 1552 1554 1556 1558 1560 1561 1563 1564 1566 1567 1569 1570 1571 1572 1573 1574 1574 1575 1576 1576 1576 1577 1577 1578 1578 1578 1578 1579 1579 1579 1579 1579 1579 1579 1579 1579 1579 1579 1579 1579 1579 1579 1579 1579 1579 1579 1579 1579 1579 1579 1579 1579 1579 1579 1579 1579 1580 1581 1582 1582 1580 1580 1581 1581 1581 1582 1582 1583 1583 1584 1585 1585 1585 1586 1585 1586 1586 1586 1586 1586
1545 1546 1547 1549 1550 1553 1554 1556 1558 1560 1562 1563 1565 1566 1568 1569 1571 1572 1573 1574 1574 1575 1575 1576 1576 1577 1577 1578 1578 1578 1579 1579 1580 1580 1580 1580 1580 1580 1580 1580 1580 1580 1580 1580 1580 1580 1580 1580 1580 1580 1580 1580 1580 1580 1580 1580 1580 1580 1579 1579 1579 1580 1581 1581 1581 1581 1581 1581 1581 1581 1582 1583 1583 1584 1584 1585 1585 1586 1586 1586 1586 1586 1586 1587 1586
1545 1547 1548 1550 1551 1553 1554 1556 1558 1560 1562 1563 1565 1567 1568 1570 1571 1572 1573 1574 1575 1576 1576 1577 1577 1577 1578 1578 1579 1579 1579 1580 1580 1581 1581 1581 1581 1581 1581 1581 1581 1581 1581 1581 1581 1581 1580 1580 1580 1581 1580 1580 1580 1580 1580 1580 1580 1580 1580 1580 1580 1580 1581 1581 1581 1581 1581 1582 1582 1581 1582 1583 1584 1584 1585 1585 1585 1586 1586 1586 1587 1587 1587 1587 1587
1546 1547 1549 1551 1552 1554 1554 1556 1558 1560 1562 1564 1565 1567 1569 1570 1571 1573 1574 1575 1575 1576 1577 1577 1577 1578 1578 1579 1580 1580 1580 1580 1581 1581 1581 1582 1582 1581 1581 1581 1581 1581 1581 1581 1582 1581 1581 1581 1581 1581 1581 1581 1580 1580 1581 1581 1581 1581 1580 1580 1580 1580 1580 1580 1581 1582 1582 1582 1582 1582 1583 1583 1584 1584 1585 1585 1586 1586 1587 1587 1587 1587 1588 1588 1588
1546 1547 1549 1551 1553 1554 1554 1556 1558 1560 1563 1564 1566 1567 1569 1570 1572 1573 1574 1575 1576 1577 1577 1578 1578 1578 1579 1579 1580 1580 1580 1581 1581 1582 1582 1582 1582 1582 1582 1582 1582 1582 1582 1582 1582 1582 1582 1582 1582 1582 1581 1581 1581 1581 1581 1581 1581 1581 1581 1581 1581 1581 1581 1580 1581 1582 1582 1582 1582 1582 1583 1583 1584 1585 1585 1585 1586 1586 1587 1587 1588 1588 1588 1588 1588
1545 1547 1549 1551 1553 1554 1555 1557 1558 1561 1563 1564 1566 1568 1569 1571 1572 1573 1574 1575 1576 1577 1578 1578 1579 1579 1579 1580 1580 1581 1581 1581 1582 1582 1582 1582 1583 1583 1583 1583 1583 1583 1583 1583 1583 1583 1583 1583 1583 1582 1582 1582 1581 1581 1581 1581 1581 1582 1582 1581 1581 1581 1581 1581 1581 1582 1582 1583 1583 1583 1583 1583 1584 1585 1585 1586 1586 1587 1587 1588 1588 1588 1588 1588 1589
1544 1547 1549 1551 1553 1554 1555 1557 1559 1561 1563 1564 1566 1568 1569 1571 1572 1574 1575 1576 1576 1577 1578 1579 1579 1579 1579 1579 1580 1581 1581 1581 1582 1582 1583 1583 1583 1583 1583 1584 1584 1584 1584 1584 1583 1583 1583 1583 1583 1583 1583 1582 1582 1582 1582 1582 1581 1582 1582 1581 1581 1582 1582 1581 1581 1582 1582 1582 1583 1583 1583 1584 1584 1585 1585 1586 1586 1587 1587 1588 1588 1589 1589 1589 1589
1543 1546 1548 1551 1553 1554 1556 1557 1559 1561 1563 1564 1566 1568 1569 1571 1572 1573 1575 1576 1577 1578 1578 1578 1578 1579 1579 1579 1580 1580 1581 1581 1582 1582 1583 1583 1583 1584 1584 1584 1585 1585 1584 1584 1584 1583 1583 1583 1583 1584 1583 1582 1582 1582 1582 1582 1581 1581 1582 1582 1583 1583 1583 1583 1583 1582 1582 1583 1583 1583 1583 1584 1584 1585 1585 1586 1587 1587 1588 1588 1588 1589 1589 1589 1590
1542 1545 1548 1550 1552 1554 1555 1557 1558 1560 1562 1564 1566 1567 1569 1571 1572 1573 1575 1576 1577 1577 1578 1578 1578 1579 1579 1579 1580 1580 1581 1582 1582 1582 1583 1583 1584 1584 1584 1584 1585 1585 1585 1584 1583 1584 1583 1583 1583 1583 1583 1583 1583 1583 1583 1583 1582 1583 1583 1583 1584 1584 1584 1585 1584 1583 1582 1583 1583 1583 1583 1584 1584 1585 1585 1586 1587 1587 1588 1589 1589 1589 1590 1590 1590
1542 1544 1547 1549 1551 1553 1555 1556 1558 1559 1562 1563 1566 1567 1568 1570 1572 1573 1575 1576 1577 1577 1578 1578 1578 1579 1579 1579 1580 1581 1582 1582 1582 1582 1583 1584 1584 1584 1583 1583 1584 1585 1585 1585 1584 1584 1582 1582 1583 1583 1584 1584 1583 1583 1583 1583 1584 1584 1584 1584 1584 1585 1585 1585 1585 1584 1583 1583 1583 1583 1583 1584 1584 1585 1585 1585 1586 1587 1588 1589 1589 1590 1590 1590 1591
1541 1543 1546 1548 1550 1552 1554 1556 1557 1559 1561 1563 1565 1566 1568 1570 1572 1573 1574 1576 1577 1577 1578 1578 1578 1579 1579 1579 1581 1582 1583 1583 1583 1583 1584 1584 1584 1584 1583 1583 1583 1584 1585 1585 1584 1584 1583 1583 1583 1583 1584 1584 1583 1583 1582 1583 1583 1584 1584 1584 1584 1585 1585 1585 1585 1584 1583 1583 1583 1583 1584 1584 1584 1585 1585 1585 1586 1587 1588 1589 1589 1590 1590 1591 1591
1541 1543 1545 1547 1549 1551 1553 1555 1556 1558 1560 1562 1564 1566 1567 1570 1571 1572 1574 1576 1576 1577 1578 1578 1578 1579 1579 1579 1581 1583 1584 1584 1584 1584 1584 1584 1584 1583 1583 1584 1584 1584 1584 1583 1583 1584 1582 1583 1583 1583 1583 1583 1583 1583 1582 1583 1583 1584 1584 1584 1585 1585 1585 1586 1586 1585 1584 1583 1584 1583 1584 1584 1585 1585 1585 1585 1586 1587 1588 1589 1589 1590 1591 1591 1591
1540 1542 1544 1546 1548 1550 1552 1554 1556 1557 1559 1561 1564 1565 1567 1569 1570 1572 1573 1575 1576 1577 1578 1578 1579 1579 1579 1580 1581 1583 1584 1585 1585 1585 1585 1584 1584 1583 1584 1584 1584 1584 1584 1583 1583 1584 1582 1583 1584 1583 1582 1582 1583 1583 1583 1583 1583 1584 1584 1585 1585 1585 1586 1586 1585 1586 1584 1583 1584 1584 1584 1584 1585 1585 1585 1586 1586 1587 1588 1589 1589 1590 1590 1591 1592
1539 1541 1543 1545 1547 1549 1551 1553 1555 1556 1559 1561 1563 1565 1566 1568 1569 1571 1572 1573 1575 1576 1578 1578 1579 1579 1580 1579 1580 1582 1584 1585 1585 1585 1585 1584 1584 1584 1584 1584 1584 1584 1583 1583 1583 1584 1583 1583 1583 1582 1582 1582 1583 1583 1583 1583 1583 1584 1584 1585 1586 1585 1586 1586 1585 1586 1585 1583 1584 1584 1584 1584 1584 1584 1584 1585 1586 1587 1588 1589 1589 1590 1590 1591 1592
1538 1540 1542 1544 1546 1548 1550 1552 1554 1556 1558 1560 1562 1564 1565 1567 1568 1570 1571 1573 1574 1575 1577 1578 1579 1579 1579 1579 1580 1581 1582 1584 1584 1583 1584 1584 1584 1584 1583 1583 1583 1583 1583 1583 1583 1584 1583 1582 1582 1582 1582 1582 1583 1583 1583 1583 1583 1584 1584 1585 1586 1586 1586 1586 1586 1586 1586 1583 1583 1584 1584 1584 1585 1584 1584 1585 1586 1587 1587 1588 1589 1590 1590 1591 1591
1537 1539 1541 1543 1545 1547 1550 1552 1553 1555 1557 1559 1561 1563 1564 1566 1568 1569 1571 1572 1573 1575 1576 1577 1578 1579 1579 1578 1579 1580 1581 1582 1582 1582 1583 1583 1584 1583 1583 1583 1583 1584 1584 1583 1582 1583 1582 1582 1582 1582 1582 1582 1583 1584 1583 1584 1584 1584 1585 1585 1586 1586 1586 1586 1586 1587 1587 1584 1583 1584 1584 1584 1585 1585 1585 1585 1585 1586 1587 1588 1589 1589 1590 1591 1592
1535 1538 1540 1542 1544 1547 1549 1551 1552 1554 1556 1558 1560 1562 1564 1565 1567 1568 1570 1571 1572 1574 1575 1576 1577 1578 1577 1577 1579 1579 1580 1581 1581 1582 1582 1583 1583 1583 1583 1583 1583 1583 1583 1582 1582 1582 1581 1582 1582 1582 1582 1583 1583 1584 1584 1584 1585 1585 1585 1586 1586 1586 1586 1586 1587 1587 1587 1585 1584 1584 1584 1585 1585 1585 1585 1585 1586 1586 1587 1588 1588 1589 1590 1591 1591
1534 1536 1539 1541 1543 1546 1548 1550 1551 1552 1554 1557 1559 1561 1563 1564 1566 1568 1569 1570 1571 1573 1574 1575 1576 1576 1576 1577 1578 1579 1579 1580 1580 1581 1582 1582 1583 1582 1582 1582 1582 1582 1582 1582 1582 1582 1581 1582 1582 1582 1583 1583 1584 1585 1584 1584 1585 1585 1586 1586 1586 1586 1586 1586 1587 1587 1588 1587 1586 1585 1585 1585 1585 1586 1586 1586 1586 1586 1587 1588 1588 1589 1589 1590 1591
1532 1535 1537 1539 1542 1544 1547 1548 1550 1551 1553 1556 1558 1560 1562 1563 1565 1567 1568 1569 1570 1572 1573 1574 1575 1575 1576 1576 1577 1578 1579 1579 1580 1580 1581 1582 1582 1582 1582 1582 1582 1582 1582 1582 1582 1582 1581 1582 1582 1582 1583 1584 1584 1584 1585 1584 1584 1585 1585 1586 1586 1586 1586 1587 1587 1588 1588 1588 1587 1586 1585 1586 1586 1586 1586 1586 1586 1587 1588 1588 1588 1589 1589 1590 1591
1531 1533 1535 1538 1541 1543 1545 1547 1548 1550 1552 1554 1556 1558 1560 1562 1564 1566 1567 1568 1569 1571 1572 1574 1574 1575 1575 1576 1576 1577 1578 1579 1579 1580 1580 1581 1581 1582 1581 1581 1582 1582 1582 1581 1581 1582 1581 1582 1582 1582 1583 1583 1584 1584 1585 1585 1584 1585 1585 1586 1586 1587 1587 1587 1587 1588 1587 1588 1587 1586 1585 1586 1586 1586 1587 1587 1587 1587 1588 1588 1588 1589 1589 1590 1591
1529 1532 1534 1536 1539 1541 1543 1545 1547 1548 1550 1553 1555 1557 1559 1561 1562 1564 1566 1567 1568 1570 1571 1573 1574 1575 1575 1575 1575 1576 1577 1578 1579 1579 1580 1580 1581 1581 1581 1581 1581 1581 1581 1581 1581 1581 1581 1582 1582 1583 1583 1583 1584 1585 1585 1585 1585 1585 1586 1586 1587 1587 1587 1587 1588 1587 1587 1588 1588 1587 1587 1586 1586 1587 1587 1587 1587 1587 1588 1588 1588 1588 1589 1590 1590
1527 1530 1533 1535 1537 1540 1542 1544 1546 1547 1549 1551 1553 1555 1557 1559 1561 1563 1564 1565 1567 1569 1571 1572 1573 1574 1575 1575 1575 1575 1576 1577 1578 1579 1579 1580 1580 1581 1581 1580 1580 1581 1580 1580 1580 1581 1581 1582 1582 1583 1583 1583 1585 1585 1585 1586 1586 1586 1586 1587 1587 1587 1587 1587 1588 1588 1587 1588 1588 1588 1588 1588 1587 1587 1587 1587 1587 1588 1588 1588 1588 1589 1589 1589 1590
1525 1528 1531 1533 1536 1538 1540 1543 1545 1547 1549 1550 1552 1555 1556 1558 1560 1561 1563 1564 1566 1568 1570 1571 1572 1573 1574 1574 1574 1574 1575 1576 1577 1578 1579 1579 1580 1581 1580 1580 1580 1580 1580 1579 1580 1580 1581 1582 1582 1583 1583 1583 1584 1585 1586 1586 1586 1586 1586 1586 1586 1587 1588 1588 1588 1589 1589 1589 1589 1589 1589 1589 1589 1588 1588 1588 1587 1588 1588 1588 1588 1589 1589 1589 1590
1523 1525 1528 1531 1534 1536 1538 1541 1543 1545 1547 1549 1551 1553 1555 1556 1558 1560 1561 1563 1564 1566 1568 1570 1571 1572 1573 1573 1572 1574 1575 1575 1576 1577 1578 1579 1579 1580 1580 1580 1580 1580 1580 1579 1580 1580 1581 1582 1582 1583 1583 1583 1584 1585 1585 1586 1586 1586 1586 1587 1587 1587 1588 1588 1589 1589 1589 1589 1590 1590 1590 1590 1590 1589 1589 1589 1588 1588 1589 1589 1589 1590 1590 1590 1590
1520 1523 1525 1528 1531 1534 1536 1538 1541 1544 1545 1547 1549 1551 1553 1554 1556 1558 1560 1562 1563 1564 1566 1568 1569 1571 1572 1571 1571 1573 1574 1574 1575 1576 1577 1578 1579 1579 1579 1579 1580 1580 1580 1579 1580 1580 1581 1582 1582 1582 1583 1584 1584 1585 1585 1585 1585 1585 1586 1587 1587 1587 1588 1588 1589 1590 1590 1590 1590 1590 1591 1591 1590 1590 1590 1589 1589 1589 1589 1589 1589 1590 1590 1590 1590
1517 1519 1522 1525 1528 1531 1534 1536 1539 1541 1543 1545 1547 1549 1551 1552 1554 1556 1559 1561 1562 1563 1564 1566 1568 1569 1570 1570 1570 1572 1572 1573 1574 1575 1576 1577 1578 1578 1579 1579 1579 1580 1580 1579 1580 1580 1581 1581 1582 1582 1583 1584 1584 1585 1585 1585 1585 1585 1586 1587 1587 1588 1589 1589 1589 1590 1590 1590 1590 1591 1591 1591 1591 1591 1591 1590 1589 1589 1590 1589 1590 1590 1590 1590 1590
1513 1517 1520 1522 1525 1528 1531 1534 1536 1539 1541 1543 1544 1546 1549 1551 1553 1555 1558 1560 1561 1562 1564 1565 1566 1568 1569 1568 1569 1570 1571 1572 1573 1574 1575 1576 1577 1577 1578 1578 1579 1579 1579 1579 1579 1580 1580 1581 1582 1583 1583 1584 1584 1584 1584 1584 1586 1586 1586 1587 1587 1588 1589 1589 1589 1590 1590 1590 1591 1591 1592 1592 1591 1591 1591 1591 1591 1591 1590 1590 1590 1590 1590 1590 1591
1510 1513 1517 1520 1522 1525 1528 1531 1534 1536 1539 1541 1542 1545 1547 1550 1553 1555 1557 1559 1561 1561 1563 1564 1565 1566 1568 1567 1568 1569 1570 1571 1572 1573 1574 1575 1576 1576 1577 1577 1578 1579 1578 1578 1579 1579 1580 1580 1581 1582 1583 1584 1584 1584 1585 1585 1585 1586 1586 1586 1587 1587 1589 1589 1589 1590 1590 1591 1591 1592 1592 1592 1591 1592 1592 1592 1591 1591 1590 1590 1590 1590 1591 1591 1591
1506 1509 1512 1516 1518 1521 1525 1528 1531 1534 1537 1539 1541 1543 1546 1548 1551 1553 1555 1558 1559 1560 1561 1562 1563 1564 1566 1566 1566 1568 1569 1570 1571 1572 1573 1574 1575 1576 1576 1577 1577 1577 1578 1578 1578 1579 1580 1580 1581 1582 1583 1584 1584 1585 1585 1585 1585 1585 1586 1586 1586 1586 1587 1588 1589 1589 1590 1591 1592 1591 1592 1592 1592 1592 1592 1591 1591 1591 1591 1591 1590 1591 1591 1591 1592
1503 1506 1509 1512 1515 1518 1522 1525 1528 1531 1534 1537 1539 1541 1543 1546 1548 1550 1552 1554 1556 1558 1558 1560 1561 1562 1564 1565 1565 1566 1567 1568 1569 1571 1572 1573 1573 1574 1575 1576 1576 1576 1576 1577 1578 1578 1579 1580 1580 1581 1582 1583 1584 1585 1584 1585 1585 1584 1585 1585 1585 1586 1586 1587 1588 1589 1590 1591 1592 1591 1591 1592 1592 1592 1592 1591 1592 1592 1592 1591 1591 1591 1591 1592 1592
1500 1503 1506 1509 1513 1515 1518 1522 1525 1528 1531 1534 1536 1539 1541 1543 1545 1547 1550 1551 1553 1555 1556 1558 1560 1561 1562 1564 1565 1565 1566 1567 1568 1569 1570 1571 1572 1573 1574 1575 1576 1575 1575 1576 1577 1578 1579 1580 1580 1581 1582 1582 1583 1584 1584 1584 1584 1584 1585 1585 1586 1586 1587 1587 1588 1589 1590 1591 1591 1591 1591 1592 1592 1592 1592 1592 1592 1592 1592 1593 1593 1592 1592 1592 1592
1498 1500 1504 1506 1509 1512 1515 1518 1521 1524 1527 1530 1533 1536 1538 1540 1543 1545 1547 1549 1551 1553 1555 1556 1558 1560 1561 1563 1564 1564 1564 1565 1567 1567 1569 1570 1571 1572 1572 1573 1574 1575 1575 1575 1576 1577 1578 1579 1580 1580 1581 1581 1582 1583 1584 1584 1584 1584 1585 1585 1586 1586 1586 1588 1588 1588 1589 1590 1590 1590 1591 1591 1592 1592 1592 1592 1592 1592 1592 1592 1593 1593 1592 1591 1592
1496 1498 1500 1503 1506 1509 1512 1515 1518 1521 1524 1527 1530 1532 1535 1537 1540 1542 1544 1547 1549 1552 1553 1555 1556 1558 1560 1561 1562 1563 1562 1564 1565 1566 1567 1568 1569 1570 1571 1572 1573 1574 1574 1575 1576 1577 1577 1578 1579 1580 1580 1581 1581 1582 1582 1583 1584 1584 1584 1584 1586 1586 1587 1587 1588 1588 1588 1589 1589 1590 1590 1591 1591 1591 1592 1592 1592 1592 1592 1592 1592 1593 1592 1591 1591
1493 1495 1498 1501 1503 1506 1509 1512 1515 1518 1521 1524 1526 1529 1532 1535 1537 1539 1541 1544 1547 1549 1552 1553 1554 1556 1557 1559 1560 1561 1561 1562 1563 1564 1565 1566 1568 1569 1569 1571 1571 1572 1573 1574 1575 1576 1577 1577 1578 1579 1580 1580 1580 1581 1581 1582 1583 1584 1583 1583 1584 1585 1586 1587 1587 1588 1588 1588 1588 1588 1589 1589 1590 1591 1592 1592 1592 1592 1592 1591 1591 1592 1592 1592 1592
1490 1493 1496 1499 1501 1502 1505 1508 1511 1515 1518 1520 1523 1526 1529 1531 1534 1536 1538 1541 1544 1546 1548 1550 1551 1553 1554 1556 1557 1559 1560 1560 1561 1562 1563 1564 1566 1567 1568 1569 1570 1571 1572 1573 1574 1575 1576 1576 1577 1578 1579 1579 1580 1580 1581 1581 1582 1583 1583 1583 1583 1584 1585 1586 1586 1587 1587 1587 1587 1587 1587 1588 1589 1589 1591 1591 1591 1592 1592 1591 1591 1592 1592 1592 1592